Preview of NWS' New Version of Forecast
This preview is not operational and should not be used for support decisions.

Regional Weather Roundup (RWR)

Issued by National Weather Service (NWS)

                            
000
ASUS45 KABQ 220610
RWRNM 
NEW MEXICO REGIONAL WEATHER ROUNDUP
NATIONAL WEATHER SERVICE ALBUQUERQUE NM
1200 AM MDT MON APR 22 2019

NOTE: "FAIR" MEANS FEW OR NO CLOUDS BELOW 12,000 FEET AGL WITH NO
       SIGNIFICANT WEATHER OR OBSTRUCTIONS TO VISION.

      THIS PRODUCT IS RELEASED AS TWO VERSIONS.  ONE VERSION NEAR
      THE TOP OF THE HOUR CONTAINING PRELIMINARY DATA FROM ALBUQUERQUE
      AND OTHER STATIONS.  A FINAL VERSION WITH ADDITIONAL DATA IS 
      ISSUED ABOUT 10 MINUTES AFTER THE HOUR.
 
NMZ501-503-504-510>518-220700-
NORTHWEST PLATEAU/NORTHCENTRAL MOUNTAINS
  
CITY           SKY/WX    TMP DP  RH WIND       PRES   REMARKS
FARMINGTON     FAIR      57  17  21 VRB7G17   29.96R                  
6HR MIN TEMP:  54; 6HR MAX TEMP:  73;                                

LOS ALAMOS       N/A     57  14  18 CALM      30.08S                  
SANTA FE       FAIR      50  23  34 CALM      30.02S                  
6HR MIN TEMP:  48; 6HR MAX TEMP:  69;                                

TAOS           FAIR      41  20  43 E8        30.09F                  
ANGEL FIRE       N/A     30  25  81 CALM      30.16S                  

$$
NMZ402-403-502-505>509-220700-
WESTCENTRAL MOUNTAINS/SOUTHWEST MOUNTAINS
  
CITY           SKY/WX    TMP DP  RH WIND       PRES   REMARKS
GALLUP         FAIR      50  19  29 SW8       30.07R                  
6HR MIN TEMP:  50; 6HR MAX TEMP:  68;                                

GRANTS         FAIR      42  18  37 CALM      30.09R                  
SILVER CITY    FAIR      52  20  28 W6        30.05R                  

$$
NMZ407-409-411-412-220700-
SOUTHERN DESERTS
  
CITY           SKY/WX    TMP DP  RH WIND       PRES   REMARKS
DEMING         FAIR      68  32  26 W12       30.00R                  
6HR MIN TEMP:  68; 6HR MAX TEMP:  83;                                

LAS CRUCES     FAIR      66  28  23 W13       29.99S                  
HOLLOMAN AFB   FAIR      66  26  22 S13       29.96R                  
ALAMOGORDO     FAIR      64  28  25 S8        29.96R                  
T OR C         FAIR      63  18  17 CALM      29.97R                  
6HR MIN TEMP:  62; 6HR MAX TEMP:  82;                                


$$
NMZ519>523-220700-
CENTRAL VALLEYS/CENTRAL HIGHLANDS
  
CITY           SKY/WX    TMP DP  RH WIND       PRES   REMARKS
ALBUQUERQUE    FAIR      62  26  25 CALM      30.00R                  
6HR MIN TEMP:  61; 6HR MAX TEMP:  73;                                

DOUBLE EAGLE   FAIR      50  26  38 W9        30.03R                  
MORIARTY ARPT  FAIR      45  29  55 CALM      30.05R                  
6HR MIN TEMP:  45; 6HR MAX TEMP:  73;                                

CLINES CORNERS FAIR      51  20  29 SW9       30.07S                  
6HR MIN TEMP:  49; 6HR MAX TEMP:  68;                                

BELEN          FAIR      58  25  28 W7        30.00S                  
6HR MIN TEMP:  57; 6HR MAX TEMP:  78;                                

SOCORRO        FAIR      61  22  22 CALM      29.96S                  
6HR MIN TEMP:  59; 6HR MAX TEMP:  82;                                


$$
NMZ524>526-539-540-220700-
SOUTHCENTRAL MOUNTAINS
  
CITY           SKY/WX    TMP DP  RH WIND       PRES   REMARKS
RUIDOSO        FAIR      59  18  20 SW9       30.11S                  

$$
NMZ527>531-220700-
NORTHEAST HIGHLANDS/NORTHEAST PLAINS
  
CITY           SKY/WX    TMP DP  RH WIND       PRES   REMARKS
LAS VEGAS      FAIR      44  26  49 N9        30.06R                  
6HR MIN TEMP:  43; 6HR MAX TEMP:  67;                                

RATON          FAIR      49  34  56 N14       30.05S                  
6HR MIN TEMP:  46; 6HR MAX TEMP:  72;                                

CLAYTON        FAIR      49  39  68 N14       30.01R                  
6HR MIN TEMP:  48; 6HR MAX TEMP:  76;                                


$$
NMZ532>537-220700-
EASTCENTRAL PLAINS
  
CITY           SKY/WX    TMP DP  RH WIND       PRES   REMARKS
SANTA ROSA     FAIR      62  22  22 SW5       29.94S                  
TUCUMCARI      FAIR      54  30  40 SW3       29.89R                  
6HR MIN TEMP:  50; 6HR MAX TEMP:  82;                                

CANNON AFB     FAIR      53  26  35 SW8       29.96R                  
6HR MIN TEMP:  52; 6HR MAX TEMP:  81;                                

CLOVIS AIRPORT FAIR      48  33  56 W5        29.95R                  

$$
NMZ028-029-538-220700-
SOUTHEAST PLAINS
  
CITY           SKY/WX    TMP DP  RH WIND       PRES   REMARKS
ROSWELL        FAIR      66  20  17 W8        29.89S                  
6HR MIN TEMP:  62; 6HR MAX TEMP:  88;                                

ARTESIA        FAIR      70  27  19 SW8       29.91R                  
CARLSBAD       FAIR      64  28  25 W7        29.88S                  
6HR MIN TEMP:  64; 6HR MAX TEMP:  87;                                

HOBBS          FAIR      68  50  52 S14G20    29.94R                  


$$